Transit IV-A

operational
NORAD ID: 116 Int'l Des: 1961 OMI Owner: BUWEPS Country: US
LEOCIRCULAR

About Transit IV-A

Description loading...

Live Position

Loading 3D Globe...

Upcoming Passes

Altitude History

Altitude vs Time

uPlot chart will show altitude changes over time

Two-Line Element Set

1 00116U 61015A 25345.26966664 .00000066 00000-0 10930-3 0 9993
2 00116 66.8103 350.6424 0070591 40.9613 319.6739 13.92287888270545
Epoch: Dec 11, 2025 • Age: 6 hours

Current Status

Altitude 966.7 km
Velocity 7.35 km/s
Sub-Earth Point -6.82°S, 95.57°W
Type other

Large Constellations

Loading constellations...